Regional Weather Roundup
Issued by NWS Wakefield, VA

Home | Current Version | Previous Version | Graphics & Text | Print | Product List | Glossary On
Versions: 1 2 3 4 5 6 7 8 9 10 11 12 13 14 15 16 17 18 19 20 21 22 23 24 25 26 27 28 29 30 31 32 33 34 35 36 37 38 39 40 41 42 43 44 45 46 47 48 49 50
564
ASUS41 KAKQ 241915
RWRAKQ

REGIONAL WEATHER ROUNDUP
NATIONAL WEATHER SERVICE WAKEFIELD VA
300 PM EDT MON APR 24 2017

Note: "fair" indicates few or no clouds below 12,000 feet with no
significant weather and/or obstructions to visibility. * = Denotes
station may not report precipitation (e.g., rain,snow,etc.),
thunder or fog.

VAZ042-051-052>054-056-242000-
NORTHERN VIRGINIA

CITY           SKY/WX    TMP DP  RH WIND       PRES   REMARKS
WASH NATIONAL  RAIN      54  49  83 NE13      30.04S
DULLES         LGT RAIN  54  45  71 E15       30.04S
FORT BELVOIR   LGT RAIN  52  49  89 NE6       30.03S
QUANTICO       LGT RAIN  54  52  93 NE14      30.03F
FREDERICKSBRG* LGT RAIN  52  52 100 N6        30.00F
STAFFORD*      RAIN      51  51 100 NE6       30.05F
WARRENTON      DRIZZLE   53  48  83 NE10      30.02S
CULPEPER*      LGT RAIN  52  50  92 NE7       30.04S
MANASSAS*      LGT RAIN  52  48  87 NE14      30.03F
LEESBURG*      LGT RAIN  59  46  63 NE12      30.05S
WINCHESTER     DRIZZLE   54  45  71 NE3       30.04S
FRONT ROYAL*   CLOUDY    54  50  87 N5        30.02F
LURAY*         DRIZZLE   52  52 100 NE8       30.01F
$$

VAZ048-049-060>072-079>083-242000-
CENTRAL AND SOUTH CENTRAL VIRGINIA

CITY           SKY/WX    TMP DP  RH WIND       PRES   REMARKS
RICHMOND       DRIZZLE   56  55  97 NE13      29.94F FOG
CHESTERFIELD*  CLOUDY    55  39  54 NE6       29.95F
PETERSBURG*    LGT RAIN  56  55  95 NE14      29.92F
HANOVER        CLOUDY    55  52  89 NE8       29.97F
TAPPAHANNOCK*  DRIZZLE   56  56 100 NE9       29.98F
QUINTON*       CLOUDY    56  56 100 NE7       29.93F
CHARLOTTSVILLE RAIN      54  51  90 NE14G21   29.99F FOG
GORDONSVILLE*  CLOUDY    51  50  97 NE9G22    29.99F
ORANGE*        DRIZZLE   50  48  93 NE12      30.01F
LOUISA*        DRIZZLE   55  54  94 NE15      29.97F
BUMPASS*       CLOUDY    51  51 100 NE5       29.98F
FARMVILLE*     DRIZZLE   54  54 100 NE12      29.93F
CREWE*         CLOUDY    54  54 100 NE8       29.92F
FORT PICKETT*  CLOUDY   N/A N/A N/A NE12      29.91F
CHASE CITY*    CLOUDY    53  51  95 NE5       29.89F
CLARKSVILLE*   CLOUDY    54  54 100 N9        29.87F
SOUTH HILL*    CLOUDY    55  55 100 N8G16     29.93F
LAWRENCEVILLE* CLOUDY    57  56  97 N7        29.87F
EMPORIA*       RAIN      59  59 100 N8        29.88F
$$

VAZ088>098-242000-
SOUTHEAST VIRGINIA

CITY           SKY/WX    TMP DP  RH WIND       PRES   REMARKS
NORFOLK        FOG       61  59  93 NE16      29.89F VSB 3/4
VIRGINIA BEACH FOG       61  59  93 NE10      29.88F VSB 1/4
NORFOLK NAVAL  LGT RAIN  61  59  93 NE14G22   29.90F FOG
WEST POINT*    CLOUDY    58  56  96 NE15G21   29.95F
SALUDA*        CLOUDY    56  56  99 NE9G17    29.96S
NEWPORT NEWS   LGT RAIN  59  58  96 NE14      29.91F FOG
LANGLEY AFB    NOT AVBL
FORT EUSTIS    LGT RAIN  61  57  88 NE16G23   29.88F FOG
WILLIAMSBURG*  CLOUDY    61  61 100 CALM      29.92F
HR EXEC AP*    CLOUDY    63  57  82 NE8       29.86F
FRANKLIN*      LGT RAIN  62  60  96 NE8       29.87F
US460-WAKEFLD  LGT RAIN  60  60 100 NE8       29.89F FOG
$$

VAZ020-022-025-037-045-242000-
WEST CENTRAL AND SOUTHWEST VIRGINIA

CITY           SKY/WX    TMP DP  RH WIND       PRES   REMARKS
STAUNTON*      HVY RAIN  51  50  97 N6        30.01F
WAYNESBORO*    CLOUDY    50  50 100 N7        29.99F
HOT SPRINGS VA RAIN      43  41  93 E14       29.95F VSB<1/4
LYNCHBURG      LGT RAIN  51  49  92 NE18G29   29.93F
DANVILLE       LGT RAIN  52  51  97 NE13      29.88F
SOUTH BOSTON*  CLOUDY    52  51  96 NE7G16    29.89F
MARTINSVILLE   DRIZZLE   51  49  93 NE8       29.91F
ROANOKE        LGT RAIN  53  51  93 NE12      29.94F
BLACKSBURG     DRIZZLE   51  49  93 E8        29.93F
DUBLIN*        LGT RAIN  52  48  86 E12       29.91F
MARION*        CLOUDY    51  50  95 CALM      29.89F FOG
HILLSVILLE*    CLOUDY    50  50 100 NE14      29.85F
RICHLANDS*     CLOUDY    53  50  91 NE10      29.86F FOG
WISE*          CLOUDY    57  50  77 N7        29.85F
ABINGDON*      CLOUDY    57  52  84 NE9       29.83F
$$

MDZ021>025-VAZ099-100-242000-
SOUTHERN MARYLAND AND THE DELMARVA PENINSULA

CITY           SKY/WX    TMP DP  RH WIND       PRES   REMARKS
PATUXENT RIVER LGT RAIN  55  55 100 NE12      30.00F
BAY BRIDGE APT CLOUDY    57  48  72 NE7       30.04F
LEONARDTOWN    CLOUDY    54  50  87 NE10      30.01F
DOVER          CLOUDY    56  56 100 NE13G22   30.06F
GEORGETOWN     CLOUDY    56  50  80 MISG      30.05F
EASTON         CLOUDY    57  46  67 E20G28    30.07F
CAMBRIDGE      PTSUNNY   55  52  88 NE17G23   30.01F
SALISBURY      LGT RAIN  54  51  90 E17       30.02F
OCEAN CITY     CLOUDY    53  50  89 NE15G23   30.02F
WALLOPS ISLAND LGT RAIN  54  52  93 NE21G35   29.99F
ACCOMACK*      LGT RAIN  55  53  94 NE20G28   29.95F
$$

NCZ012>017-030>032-242000-
NORTH CENTRAL AND EASTERN NORTH CAROLINA

CITY           SKY/WX    TMP DP  RH WIND       PRES   REMARKS
ROANOKE RAPIDS RAIN      61  61 100 NE7       29.84F
RALEIGH        RAIN      56  55  97 NE13      29.81F FOG
ELIZABETH CITY CLOUDY    67  66  97 E9        29.84F
AHOSKIE*       RAIN      63  62  97 N9        29.83F
EDENTON*       LGT RAIN  69  67  92 E9        29.83S
CURRITUCK*     CLOUDY    65  65 100 E8        29.86F
KILL DEVIL HLS CLOUDY    67  64  91 CALM      29.83F
MANTEO         CLOUDY    71  64  78 SE12      29.84F
CAPE HATTERAS  LGT RAIN  68  65  90 SE15      29.80F FOG
TARBORO*       NOT AVBL
GOLDSBORO      LGT RAIN  64  64 100 E7        29.74F FOG
WASHINGTON     LGT RAIN  67  66  95 NE7       29.79F
GREENVILLE     LGT RAIN  68  68 100 SE6       29.82F
NEW BERN       HVY RAIN  67  66  97 SE13      29.78F FOG
WILMINGTON     HVY RAIN  67  67 100 SE12G25   29.70F VSB 1
$$

VAZ048-242000-
ELSEWHERE

CITY           SKY/WX    TMP DP  RH WIND       PRES   REMARKS
HARRISBURG PA  CLOUDY    60  46  59 NE10G22   30.08S
BALTIMORE      LGT RAIN  54  48  80 NE12      30.04F
ANNAPOLIS      CLOUDY    58  48  69 NE9G22    30.04F
ANDREWS AFB    DRIZZLE   52  48  87 NE10      30.02S
PHILADELPHIA   CLOUDY    58  43  57 E8        30.11S
HENDERSON NC   RAIN      52  51  96 NE8G17    29.86F
GREENSBORO     CLOUDY    52  51  97 NE18      29.83F
ROCKY MOUNT    RAIN      62  62 100 NE14      29.79F FOG
$$

VAZ100-242000-
MARINE

STATION/POSITION TIME  TEMP    WIND        PRES    WAVE   SWELL
                       AIR SEA DIR/SP/G            HT/PER HT/PER
                 (UTC) (F)     (DEG/KT/KT) (MB)    (FT/S) (FT/S)
CAPE MAY NJ      1848   53 55   60/ 15/ 25 1017.1F
LEWES DE         1848   53      80/ 18/ 21 1017.6F
15NM E FENWICK I 1850   52 51   40/ 21/ 25 1016.7F   6/ 5   2/11
OCEAN-CITY-INLET 1848   53 56   70/  7/ 13 1017.1F
WACHAPREAGUE VA  1848   55 58   40/ 21/ 28 1013.6F
THOMAS POINT MD  1900   57 57   60/ 13/ 15   N/A
GOOSES REEF MD   1900   57 54   80/ 17/ 19 1017.0    2/ 3
COVE POINT MD    1848   55      60/ 11/ 14 1016.9F
SOLOMONS ISLAND  1848   55 60   40/ 12/ 17   N/A
BISHOPS HEAD MD  1848   57 60   60/ 19/ 24 1015.5F
PINEY POINT MD   1848           80/ 11/ 14   N/A
POTOMAC MD       1900   57 60   60/ 17/ 23 1014.7    2/ 3
CAMBRIDGE MD     1812   56 62   70/ 18/ 25 1015.9
LEWISETTA VA     1848   57 61   70/ 19/ 23 1015.0F
RAPPAHANNOCK LGT 1848           50/ 24/ 28 1014.0F
STINGRAY PT      1900   57 61   80/ 23/ 27 1013.1    4/ 4
YORK RVR RNG VA  1848   59      70/ 24/ 26 1012.1F
YORKTOWN VA      1848   60 62   60/ 15/ 21 1013.0F
JAMESTOWN VA     1900   59 67   50/  8/ 12   N/A     0
DOMINION TERM VA 1848   60      60/ 14/ 20 1012.5F
KIPTOPEKE VA     1848      60   60/ 12/ 21   N/A
CHES BAY BRIDGE  1848   59 61   60/ 25/ 28 1011.5F
CAPE HENRY VA    1848   58      40/ 16/ 20   N/A
WILLOUBY STN VA  1848   59      60/ 22/ 25 1013.0F
S CRANEY ISL VA  1848   61      70/ 16/ 20 1011.6F
CAPE HENRY BUOY  1842      56                N/A     5/ 6   2/11
1ST LANDING BUOY 1900   60 61              1012.8    3/ 4
CAPE CHARLES BUO 1851      58                N/A     5/ 6   2/11
64NM E OF VA BCH 1850   60 54   80/ 10/ 10 1012.6F   5/ 6   5/ 6
DUCK PIER NC     1848   63 60   90/ 15/ 17 1010.1F
44100 DUCK FRF   1805      55                N/A     5/11   2/11
44056 DUCK FRF   1830      60                N/A     4/12   2/12
OREGON INLET NC  1848           90/ 10/ 13   N/A
HATTERAS NC      1848   68 67  120/ 16/ 23 1009.2F
DIAMOND SHLS NC  1850   75 79  130/ 27/ 33 1008.4F   8/ 7   3/11
CAPE LOOKOUT NC  1900   72     120/ 26/ 31 1006.5F
$$




USA.gov is the U.S. government's official web portal to all federal, state and local government web resources and services.